User: anonymous   Login
Location: Unspecified
(0.0000°N, 0.0000°E)
Time: 14:28:36
(UTC+00:00)
Language:

Transit 2A - Orbit

View from above orbital plane
View from above orbital plane
View from above satellite
View from above satellite

Ground track
Ground track

The orbit data is extracted from the following two-line orbital elements,

1    45U 60007A   19051.83408944 -.00000095 +00000-0 +35748-5 0  9995
2    45 066.6931 212.7033 0261660 306.0399 051.6707 14.33627406996692
Epoch (UTC): 20 February 2019 20:01:05
Eccentricity: 0.0261660
inclination: 66.6931°
perigee height: 592 km
apogee height: 967 km
right ascension of ascending node: 212.7033°
argument of perigee: 306.0399°
revolutions per day: 14.33627406
mean anomaly at epoch: 51.6707°
orbit number at epoch: 99669

The dashed part of the orbit path shows where the satellite is in the earth's shadow,  

DLR